Location: Ch�teau-Arnoux
(44.0814°N, 6.0027°E)
Time: 08:21:28
(UTC+00:00)

Lacrosse 5 - Pass Details

Date: 15 November 2019
Orbit: 715 x 724 km, 57.0° (Epoch: 30 November)

Event Time Altitude Azimuth Distance (km) Brightness Sun altitude
Exits shadow 04:45:07 37° 291° (WNW) 1,115 2.3 -18.9°
Maximum altitude 04:46:21 44° 328° (NNW) 996 2.3 -18.7°
Drops below altitude 10° 04:51:12 10° 40° (NE) 2,208 4.8 -17.9°
Sets 04:53:42 0° 47° (NE) 3,129 5.7 -17.4°
